Flag for United Kingdom Weather past 2 weeks in Stoke-on-Trent, England, United Kingdom

Now
61 °F

Passing clouds.


Feels Like: 61 °F
Forecast: 50 / 68 °F
Wind: 13 mph from East

Location: Manchester Airport

Current Time: Jul 4, 2015 at 1:16:20 AM

Latest Report: Jul 4, 2015 at 12:50 AM


Visibility: N/A

Pressure: 30.04 "Hg

Humidity: 77%

Dew point: 54 °F

Location of Stoke-on-TrentLocation

Historic Weather in Stoke-on-Trent — Graph

°F

Stoke-on-Trent temperature yesterday

Maximum temperature yesterday: 75 °F (at 3:50 PM)
Minimum temperature yesterday: 50 °F (at 4:20 AM)
Average temperature yesterday: 63 °F

Past Weeks' High & Low Weather Summary

 TemperatureHumidityPressure
High86 °F (Jul 1, 2:50 PM)100% (Jun 20, 5:20 AM)30.30 "Hg (Jun 20, 5:20 AM)
Low48 °F (Jun 22, 4:20 AM)39% (Jun 30, 8:20 PM)29.80 "Hg (Jun 22, 6:50 AM)
Average61 °F77%30.05 "Hg
* Reported Jun 19 12:20 AM — Jul 4 12:20 AM, Stoke-on-Trent, Weather by CustomWeather, © 2015

Note: Actual official high and low records may vary slightly from our data, if they occured in-between our weather recording intervals... More about our weather records

Advertising

Stoke-on-Trent weather history for previous 24 hours

 ConditionsComfort  
Time TempWeatherWind HumidityBarometerVisibility
12:20 AM
Sat, Jul 4
61 °FPassing clouds.12 mph77%30.07 "HgN/A
11:50 PM
Fri, Jul 3
61 °FPassing clouds.16 mph72%30.07 "HgN/A
11:20 PM63 °FPassing clouds.14 mph64%30.09 "HgN/A
10:50 PM63 °FPassing clouds.16 mph59%30.09 "HgN/A
10:20 PM63 °FSunny.17 mph59%30.09 "Hg10 mi
9:50 PM64 °FMild.18 mph56%30.12 "HgN/A
9:20 PM64 °FSunny.17 mph56%30.12 "Hg10 mi
8:50 PM66 °FSunny.17 mph52%30.12 "Hg10 mi
8:20 PM68 °FSunny.12 mph53%30.12 "Hg10 mi
7:50 PM70 °FSunny.15 mph50%30.15 "Hg10 mi
7:20 PM70 °FSunny.14 mph50%30.15 "Hg10 mi
6:50 PM73 °FSunny.14 mph50%30.15 "Hg10 mi
6:20 PM72 °FSunny.14 mph50%30.15 "Hg10 mi
5:50 PM73 °FSunny.12 mph47%30.18 "Hg10 mi
5:20 PM73 °FSunny.9 mph47%30.18 "Hg10 mi
4:50 PM73 °FSunny.9 mph50%30.18 "Hg10 mi
4:20 PM73 °FPassing clouds.9 mph44%30.21 "HgN/A
3:50 PM75 °FMild.12 mph41%30.21 "HgN/A
3:20 PM73 °FPassing clouds.9 mph44%30.21 "HgN/A
2:50 PM73 °FPassing clouds.7 mph44%30.24 "HgN/A
2:20 PM73 °FPassing clouds.8 mph44%30.24 "HgN/A
1:50 PM73 °FPassing clouds.7 mph47%30.24 "HgN/A
1:20 PM73 °FPassing clouds.7 mph47%30.24 "HgN/A
12:50 PM72 °FPassing clouds.7 mph50%30.27 "HgN/A
12:20 PM72 °FMild.6 mph50%30.27 "HgN/A
11:50 AM70 °FPassing clouds.8 mph57%30.27 "HgN/A
11:20 AM70 °FPassing clouds.8 mph53%30.27 "HgN/A
10:50 AM68 °FPassing clouds.5 mph64%30.30 "HgN/A
10:20 AM66 °FPassing clouds.6 mph64%30.30 "HgN/A
9:50 AM66 °FPassing clouds.6 mph68%30.30 "HgN/A
9:20 AM64 °FPassing clouds.3 mph73%30.30 "HgN/A
8:50 AM63 °FPassing clouds.3 mph73%30.30 "HgN/A
8:20 AM63 °FPassing clouds.3 mph77%30.30 "HgN/A
7:50 AM61 °FSunny.No wind83%30.30 "Hg10 mi
7:20 AM57 °FSunny.3 mph94%30.30 "Hg10 mi
6:50 AM55 °FFog.2 mph94%30.30 "HgN/A
6:20 AM54 °FFog.No wind100%30.27 "HgN/A
5:50 AM50 °FSunny.3 mph100%30.27 "Hg10 mi
5:20 AM50 °FFog.3 mph100%30.27 "Hg6 mi
4:50 AM50 °FFog.2 mph100%30.27 "Hg6 mi
4:20 AM50 °FPassing clouds.2 mph100%30.27 "HgN/A
3:50 AM52 °FClear.3 mph100%30.27 "Hg10 mi
3:20 AM52 °FClear.5 mph100%30.27 "Hg10 mi
2:50 AM52 °FClear.5 mph100%30.27 "Hg10 mi
2:20 AM52 °FClear.3 mph100%30.24 "Hg10 mi
1:50 AM52 °FClear.3 mph100%30.24 "Hg10 mi
1:20 AM52 °FClear.3 mph100%30.24 "Hg10 mi
Weather by CustomWeather, © 2015

See weather overviewHow to use our weather pages